SAS7289 EKCH-LGZA

Flight info

Callsign SAS7289
Flight time 3h 11m
Altitude 35000
Route SIMEG Z493 XELOL Z491 VAVUN L996 DENKO L616 DESEN DCT VALPI DCT XOMBA DCT BABIT DCT TADAM/N0450F370 DCT REDVA UL616 KOGAT DCT BITLA UN731 YNN UT352 ASTUS
Aircraft B738/M-SDE2E3FGHIRWXY/LB1

Departure

Time 2026-05-07 14:01
Airport Copenhagen Kastrup Airport (EKCH)

Arrival

Time 2026-05-07 17:12
Airport Zakynthos International Airport Dionysios Solomos (LGZA)
Time Latitude Longitude Altitude Speed Heading
2026-05-07 13:29 55.62735 12.64280 22 ft 0 kts 298°
2026-05-07 13:47 55.62728 12.64309 20 ft 4 kts 278°
2026-05-07 13:47 55.62730 12.64350 21 ft 4 kts 236°
2026-05-07 13:47 55.62747 12.64380 20 ft 3 kts 208°
2026-05-07 13:48 55.62751 12.64383 20 ft 1 kts 206°
2026-05-07 13:51 55.62738 12.64372 23 ft 4 kts 206°
2026-05-07 13:52 55.62702 12.64342 20 ft 8 kts 203°
2026-05-07 13:52 55.62645 12.64299 22 ft 11 kts 203°
2026-05-07 13:52 55.62584 12.64233 22 ft 12 kts 214°
2026-05-07 13:52 55.62506 12.64248 20 ft 14 kts 122°
2026-05-07 13:53 55.62448 12.64388 19 ft 14 kts 128°
2026-05-07 13:53 55.62368 12.64439 18 ft 14 kts 195°
2026-05-07 13:53 55.62355 12.64433 18 ft 0 kts 194°
2026-05-07 13:55 55.62349 12.64430 18 ft 2 kts 194°
2026-05-07 13:55 55.62309 12.64412 20 ft 10 kts 195°
2026-05-07 13:56 55.62223 12.64398 16 ft 14 kts 171°
2026-05-07 13:56 55.62124 12.64429 17 ft 15 kts 169°
2026-05-07 13:56 55.62028 12.64462 20 ft 14 kts 169°
2026-05-07 13:56 55.61936 12.64491 20 ft 13 kts 169°
2026-05-07 13:57 55.61848 12.64523 22 ft 13 kts 168°
2026-05-07 13:57 55.61750 12.64558 18 ft 17 kts 169°
2026-05-07 13:57 55.61638 12.64524 21 ft 18 kts 212°
2026-05-07 13:57 55.61524 12.64395 18 ft 21 kts 213°
2026-05-07 13:58 55.61407 12.64259 15 ft 20 kts 213°
2026-05-07 13:58 55.61294 12.64129 15 ft 20 kts 213°
2026-05-07 13:58 55.61185 12.64002 16 ft 19 kts 213°
2026-05-07 13:58 55.61079 12.63880 18 ft 19 kts 212°
2026-05-07 13:59 55.60975 12.63761 20 ft 18 kts 213°
2026-05-07 13:59 55.60868 12.63638 21 ft 20 kts 213°
2026-05-07 13:59 55.60751 12.63504 19 ft 22 kts 213°
2026-05-07 13:59 55.60630 12.63353 22 ft 21 kts 219°
2026-05-07 14:00 55.60511 12.63219 21 ft 20 kts 177°
2026-05-07 14:00 55.60428 12.63341 26 ft 16 kts 127°
2026-05-07 14:00 55.60440 12.63510 27 ft 16 kts 42°
2026-05-07 14:00 55.60623 12.63791 28 ft 65 kts 41°
2026-05-07 14:01 55.61104 12.64535 19 ft 121 kts 40°
2026-05-07 14:01 55.61821 12.65661 90 ft 157 kts 40°
2026-05-07 14:01 55.62632 12.66975 554 ft 163 kts 41°
2026-05-07 14:01 55.63481 12.68365 1019 ft 179 kts 40°
2026-05-07 14:02 55.64415 12.69777 1730 ft 178 kts 39°
2026-05-07 14:02 55.65383 12.71198 2176 ft 198 kts 38°
2026-05-07 14:02 55.66466 12.72785 2398 ft 218 kts 38°
2026-05-07 14:02 55.67624 12.74498 2766 ft 230 kts 38°
2026-05-07 14:03 55.68878 12.76360 3032 ft 251 kts 38°
2026-05-07 14:03 55.70136 12.78454 3782 ft 254 kts 52°
2026-05-07 14:03 55.70766 12.81318 4479 ft 261 kts 83°
2026-05-07 14:03 55.70525 12.84447 5179 ft 270 kts 112°
2026-05-07 14:04 55.69441 12.87030 5849 ft 276 kts 143°
2026-05-07 14:04 55.67743 12.88496 6641 ft 275 kts 160°
2026-05-07 14:04 55.65974 12.89604 7242 ft 279 kts 160°
2026-05-07 14:04 55.64169 12.90724 7818 ft 283 kts 159°
2026-05-07 14:05 55.62334 12.91812 8415 ft 287 kts 167°
2026-05-07 14:05 55.60402 12.91771 9070 ft 287 kts 196°
2026-05-07 14:05 55.58686 12.90201 9674 ft 289 kts 220°
2026-05-07 14:05 55.57301 12.87805 10220 ft 292 kts 227°
2026-05-07 14:06 55.55910 12.85196 10450 ft 309 kts 227°
2026-05-07 14:06 55.54421 12.82428 10591 ft 326 kts 226°
2026-05-07 14:06 55.52809 12.79630 10726 ft 343 kts 217°
2026-05-07 14:06 55.50702 12.77878 10999 ft 353 kts 191°
2026-05-07 14:07 55.48308 12.77708 11496 ft 356 kts 173°
2026-05-07 14:07 55.45887 12.78279 12026 ft 359 kts 172°
2026-05-07 14:07 55.43458 12.78882 12589 ft 362 kts 172°
2026-05-07 14:07 55.41015 12.79448 13319 ft 362 kts 173°
2026-05-07 14:08 55.38556 12.79989 13966 ft 366 kts 173°
2026-05-07 14:08 55.36111 12.80988 14501 ft 371 kts 156°
2026-05-07 14:08 55.34034 12.83522 15067 ft 377 kts 134°
2026-05-07 14:08 55.32574 12.87241 15662 ft 381 kts 114°
2026-05-07 14:09 55.31831 12.91614 16235 ft 385 kts 102°
2026-05-07 14:09 55.31306 12.96176 16825 ft 389 kts 101°
2026-05-07 14:09 55.30808 13.00755 17385 ft 393 kts 101°
2026-05-07 14:09 55.30300 13.05387 17951 ft 397 kts 101°
2026-05-07 14:10 55.29775 13.10063 18491 ft 401 kts 102°
2026-05-07 14:10 55.29228 13.14804 18997 ft 404 kts 102°
2026-05-07 14:10 55.28669 13.19559 19493 ft 407 kts 102°
2026-05-07 14:10 55.28103 13.24321 19993 ft 409 kts 102°
2026-05-07 14:11 55.27530 13.29116 20481 ft 413 kts 102°
2026-05-07 14:11 55.26947 13.33978 20958 ft 415 kts 102°
2026-05-07 14:11 55.26360 13.38866 21376 ft 420 kts 103°
2026-05-07 14:11 55.25764 13.43792 21793 ft 424 kts 103°
2026-05-07 14:12 55.25074 13.48720 22238 ft 426 kts 112°
2026-05-07 14:12 55.23665 13.53097 22665 ft 424 kts 131°
2026-05-07 14:12 55.21752 13.56974 23182 ft 425 kts 134°
2026-05-07 14:12 55.19844 13.60730 23592 ft 428 kts 134°
2026-05-07 14:13 55.17891 13.64570 23953 ft 431 kts 134°
2026-05-07 14:13 55.15933 13.68444 24329 ft 433 kts 133°
2026-05-07 14:13 55.13966 13.72362 24729 ft 435 kts 133°
2026-05-07 14:13 55.12049 13.76193 25090 ft 437 kts 133°
2026-05-07 14:14 55.10103 13.80092 25438 ft 439 kts 133°
2026-05-07 14:14 55.08091 13.84121 25788 ft 441 kts 133°
2026-05-07 14:14 55.06134 13.88034 26141 ft 442 kts 133°
2026-05-07 14:14 55.04146 13.92003 26479 ft 444 kts 133°
2026-05-07 14:15 55.02147 13.95988 26818 ft 446 kts 133°
2026-05-07 14:15 55.00127 14.00005 27132 ft 448 kts 133°
2026-05-07 14:15 54.98098 14.04036 27452 ft 450 kts 133°
2026-05-07 14:15 54.96068 14.08062 27765 ft 451 kts 133°
2026-05-07 14:16 54.94035 14.12086 28134 ft 452 kts 133°
2026-05-07 14:16 54.91961 14.16058 28438 ft 453 kts 137°
2026-05-07 14:16 54.89595 14.19527 28690 ft 453 kts 146°
2026-05-07 14:16 54.87043 14.22547 28983 ft 454 kts 148°
2026-05-07 14:17 54.84463 14.25551 29255 ft 456 kts 148°
2026-05-07 14:17 54.81896 14.28586 29586 ft 456 kts 148°
2026-05-07 14:17 54.79334 14.31666 29987 ft 455 kts 148°
2026-05-07 14:17 54.76799 14.34730 30370 ft 453 kts 148°
2026-05-07 14:18 54.74242 14.37717 30686 ft 452 kts 149°
2026-05-07 14:18 54.71667 14.40626 30955 ft 452 kts 149°
2026-05-07 14:18 54.69064 14.43529 31237 ft 452 kts 149°
2026-05-07 14:18 54.66480 14.46406 31539 ft 451 kts 149°
2026-05-07 14:19 54.63906 14.49281 31901 ft 448 kts 149°
2026-05-07 14:19 54.61354 14.52138 32279 ft 446 kts 149°
2026-05-07 14:19 54.58832 14.54965 32552 ft 446 kts 149°
2026-05-07 14:19 54.56255 14.57854 32771 ft 447 kts 149°
2026-05-07 14:20 54.53709 14.60707 33027 ft 446 kts 149°
2026-05-07 14:20 54.51199 14.63516 33333 ft 444 kts 149°
2026-05-07 14:20 54.48682 14.66331 34033 ft 434 kts 150°
2026-05-07 14:20 54.46219 14.69080 34352 ft 432 kts 150°
2026-05-07 14:21 54.43752 14.71827 34452 ft 434 kts 150°
2026-05-07 14:21 54.38741 14.77392 34645 ft 439 kts 150°
2026-05-07 14:21 54.36228 14.80179 34809 ft 440 kts 150°
2026-05-07 14:22 54.33717 14.82962 35030 ft 439 kts 149°
2026-05-07 14:22 54.28646 14.88510 35083 ft 441 kts 153°
2026-05-07 14:23 54.23142 14.92323 35095 ft 434 kts 164°
2026-05-07 14:23 54.17508 14.95408 35085 ft 432 kts 164°
2026-05-07 14:24 54.11921 14.98564 35078 ft 430 kts 164°
2026-05-07 14:24 54.06316 15.01742 35082 ft 429 kts 165°
2026-05-07 14:25 54.00738 15.04780 35077 ft 428 kts 165°
2026-05-07 14:25 53.95178 15.07778 35080 ft 428 kts 165°
2026-05-07 14:26 53.89646 15.10766 35070 ft 428 kts 165°
2026-05-07 14:26 53.84084 15.13771 35068 ft 429 kts 165°
2026-05-07 14:27 53.78471 15.16796 35068 ft 429 kts 165°
2026-05-07 14:27 53.72941 15.19766 35063 ft 430 kts 165°
2026-05-07 14:28 53.67347 15.22754 35056 ft 430 kts 165°
2026-05-07 14:28 53.61771 15.25726 35057 ft 430 kts 165°
2026-05-07 14:29 53.56172 15.28703 35052 ft 430 kts 165°
2026-05-07 14:29 53.50586 15.31666 35048 ft 430 kts 165°
2026-05-07 14:30 53.45068 15.35007 35042 ft 432 kts 157°
2026-05-07 14:30 53.39767 15.39283 35042 ft 432 kts 157°
2026-05-07 14:31 53.34412 15.43413 35046 ft 432 kts 158°
2026-05-07 14:31 53.29059 15.47476 35042 ft 432 kts 158°
2026-05-07 14:32 53.23695 15.51561 35038 ft 432 kts 158°
2026-05-07 14:32 53.18343 15.55634 35031 ft 430 kts 158°
2026-05-07 14:33 53.13892 15.59013 35037 ft 430 kts 158°
2026-05-07 14:33 53.08584 15.63034 35036 ft 429 kts 158°
2026-05-07 14:34 53.03255 15.67056 35034 ft 428 kts 158°
2026-05-07 14:34 52.97936 15.71074 35033 ft 427 kts 158°
2026-05-07 14:35 52.92650 15.75065 35034 ft 426 kts 158°
2026-05-07 14:35 52.87366 15.79045 35032 ft 426 kts 158°
2026-05-07 14:36 52.82070 15.83020 35014 ft 426 kts 158°
2026-05-07 14:36 52.76763 15.86838 35022 ft 425 kts 160°
2026-05-07 14:37 52.71421 15.90541 35029 ft 424 kts 160°
2026-05-07 14:37 52.63429 15.96082 35031 ft 424 kts 160°
2026-05-07 14:38 52.58107 15.99780 35029 ft 424 kts 160°
2026-05-07 14:38 52.52770 16.03483 35027 ft 424 kts 160°
2026-05-07 14:39 52.47453 16.07164 35027 ft 424 kts 160°
2026-05-07 14:39 52.42114 16.10850 34998 ft 424 kts 160°
2026-05-07 14:40 52.36805 16.14505 35017 ft 424 kts 160°
2026-05-07 14:40 52.31502 16.18146 35021 ft 423 kts 160°
2026-05-07 14:41 52.26183 16.21789 35018 ft 423 kts 160°
2026-05-07 14:41 52.20845 16.25436 35019 ft 423 kts 160°
2026-05-07 14:42 52.15519 16.29065 35018 ft 423 kts 160°
2026-05-07 14:42 52.10151 16.32713 35014 ft 423 kts 161°
2026-05-07 14:43 52.04807 16.36335 35011 ft 423 kts 161°
2026-05-07 14:43 51.99470 16.39943 35003 ft 422 kts 161°
2026-05-07 14:44 51.94158 16.43526 35009 ft 421 kts 161°
2026-05-07 14:44 51.88866 16.47085 35002 ft 420 kts 161°
2026-05-07 14:45 51.83608 16.50612 35002 ft 420 kts 161°
2026-05-07 14:45 51.78325 16.54148 35000 ft 419 kts 161°
2026-05-07 14:46 51.73053 16.57668 34996 ft 419 kts 161°
2026-05-07 14:46 51.67786 16.61176 35003 ft 418 kts 161°
2026-05-07 14:47 51.62503 16.64677 34985 ft 418 kts 162°
2026-05-07 14:47 51.57235 16.68157 34994 ft 418 kts 162°
2026-05-07 14:48 51.51964 16.71633 34992 ft 417 kts 161°
2026-05-07 14:48 51.46714 16.75086 34988 ft 416 kts 162°
2026-05-07 14:49 51.41457 16.78528 34991 ft 416 kts 162°
2026-05-07 14:49 51.36215 16.81950 34996 ft 415 kts 162°
2026-05-07 14:50 51.30963 16.85372 34981 ft 416 kts 162°
2026-05-07 14:50 51.25717 16.88784 34992 ft 416 kts 162°
2026-05-07 14:51 51.20455 16.92198 34984 ft 415 kts 162°
2026-05-07 14:51 51.15200 16.95605 34991 ft 414 kts 162°
2026-05-07 14:52 51.09976 16.99000 34994 ft 413 kts 162°
2026-05-07 14:52 51.04736 17.02398 34991 ft 412 kts 162°
2026-05-07 14:53 50.99517 17.05774 34992 ft 412 kts 162°
2026-05-07 14:53 50.94319 17.09128 34981 ft 411 kts 162°
2026-05-07 14:54 50.89150 17.12456 34976 ft 411 kts 162°
2026-05-07 14:54 50.83959 17.15788 34944 ft 410 kts 163°
2026-05-07 14:55 50.78769 17.19097 34948 ft 409 kts 163°
2026-05-07 14:55 50.73602 17.22377 34951 ft 409 kts 163°
2026-05-07 14:56 50.68422 17.25660 34949 ft 409 kts 163°
2026-05-07 14:56 50.63247 17.28933 34946 ft 409 kts 163°
2026-05-07 14:57 50.58073 17.32199 34943 ft 408 kts 163°
2026-05-07 14:57 50.52909 17.35451 34962 ft 409 kts 163°
2026-05-07 14:58 50.47712 17.38716 34936 ft 410 kts 163°
2026-05-07 14:58 50.42527 17.41968 34937 ft 410 kts 163°
2026-05-07 14:59 50.37325 17.45222 34938 ft 411 kts 163°
2026-05-07 14:59 50.32129 17.48485 34940 ft 412 kts 163°
2026-05-07 15:00 50.26895 17.51711 34944 ft 410 kts 166°
2026-05-07 15:00 50.21508 17.53794 34947 ft 407 kts 172°
2026-05-07 15:01 50.16057 17.55654 34946 ft 408 kts 172°
2026-05-07 15:01 50.10683 17.57515 34939 ft 408 kts 172°
2026-05-07 15:02 50.05258 17.59422 34936 ft 408 kts 172°
2026-05-07 15:02 49.99834 17.61337 34932 ft 408 kts 172°
2026-05-07 15:03 49.94402 17.63253 34935 ft 408 kts 172°
2026-05-07 15:03 49.88988 17.65158 34944 ft 408 kts 172°
2026-05-07 15:04 49.83557 17.67063 34942 ft 408 kts 172°
2026-05-07 15:04 49.78125 17.68965 34939 ft 409 kts 172°
2026-05-07 15:05 49.72691 17.70863 34940 ft 410 kts 172°
2026-05-07 15:05 49.67243 17.72762 34945 ft 409 kts 172°
2026-05-07 15:06 49.61800 17.74655 34940 ft 409 kts 172°
2026-05-07 15:06 49.56349 17.76546 34941 ft 410 kts 172°
2026-05-07 15:07 49.50902 17.78431 34939 ft 410 kts 172°
2026-05-07 15:07 49.45448 17.80314 34944 ft 409 kts 172°
2026-05-07 15:08 49.40004 17.82190 34947 ft 409 kts 172°
2026-05-07 15:08 49.34560 17.84062 34939 ft 409 kts 172°
2026-05-07 15:09 49.29126 17.85926 34953 ft 409 kts 172°
2026-05-07 15:09 49.23671 17.87792 34940 ft 409 kts 172°
2026-05-07 15:10 49.18219 17.89654 34946 ft 409 kts 172°
2026-05-07 15:10 49.12795 17.91502 34941 ft 409 kts 172°
2026-05-07 15:11 49.07357 17.93352 34941 ft 407 kts 172°
2026-05-07 15:11 49.01915 17.95098 34943 ft 404 kts 177°
2026-05-07 15:12 48.96459 17.95659 34948 ft 401 kts 181°
2026-05-07 15:12 48.91035 17.96083 34959 ft 401 kts 180°
2026-05-07 15:13 48.85578 17.96537 34962 ft 402 kts 180°
2026-05-07 15:13 48.80110 17.97018 34964 ft 402 kts 180°
2026-05-07 15:14 48.74638 17.97507 34963 ft 402 kts 180°
2026-05-07 15:14 48.69160 17.97997 34969 ft 403 kts 180°
2026-05-07 15:15 48.63679 17.98487 34966 ft 403 kts 180°
2026-05-07 15:15 48.58179 17.98977 34969 ft 403 kts 180°
2026-05-07 15:16 48.52694 17.99465 34960 ft 404 kts 180°
2026-05-07 15:16 48.47188 17.99955 34955 ft 403 kts 181°
2026-05-07 15:17 48.41701 18.00440 34957 ft 404 kts 181°
2026-05-07 15:17 48.36201 18.00925 34968 ft 404 kts 181°
2026-05-07 15:18 48.30711 18.01409 34969 ft 403 kts 181°
2026-05-07 15:18 48.25207 18.01893 34984 ft 403 kts 181°
2026-05-07 15:19 48.19708 18.02375 34969 ft 404 kts 181°
2026-05-07 15:19 48.14188 18.02858 34978 ft 404 kts 181°
2026-05-07 15:20 48.08690 18.03339 34976 ft 405 kts 181°
2026-05-07 15:20 48.03161 18.03821 34983 ft 405 kts 181°
2026-05-07 15:21 47.98584 18.04219 34974 ft 405 kts 181°
2026-05-07 15:21 47.93067 18.04698 34979 ft 405 kts 181°
2026-05-07 15:22 47.87563 18.05176 34967 ft 404 kts 181°
2026-05-07 15:22 47.81158 18.05729 34987 ft 404 kts 181°
2026-05-07 15:23 47.76558 18.06203 34985 ft 407 kts 177°
2026-05-07 15:23 47.71121 18.08343 34998 ft 415 kts 167°
2026-05-07 15:24 47.65755 18.11036 34997 ft 416 kts 167°
2026-05-07 15:24 47.60360 18.13713 34981 ft 417 kts 167°
2026-05-07 15:25 47.54972 18.16358 34988 ft 417 kts 167°
2026-05-07 15:25 47.49556 18.19002 34993 ft 417 kts 167°
2026-05-07 15:26 47.44154 18.21631 34972 ft 417 kts 167°
2026-05-07 15:26 47.38742 18.24260 34985 ft 417 kts 167°
2026-05-07 15:27 47.33328 18.26883 34987 ft 418 kts 167°
2026-05-07 15:27 47.27870 18.29520 34986 ft 423 kts 167°
2026-05-07 15:28 47.22381 18.32170 34976 ft 421 kts 167°
2026-05-07 15:28 47.16973 18.34781 34980 ft 413 kts 168°
2026-05-07 15:29 47.11632 18.37346 34996 ft 414 kts 168°
2026-05-07 15:29 47.06207 18.39944 34969 ft 414 kts 168°
2026-05-07 15:30 47.00824 18.42518 34989 ft 415 kts 168°
2026-05-07 15:30 46.95426 18.45095 34999 ft 416 kts 168°
2026-05-07 15:31 46.90036 18.47663 34991 ft 417 kts 168°
2026-05-07 15:31 46.84606 18.50244 35003 ft 418 kts 168°
2026-05-07 15:32 46.79145 18.52835 34998 ft 419 kts 168°
2026-05-07 15:32 46.73740 18.55393 34995 ft 420 kts 168°
2026-05-07 15:33 46.68295 18.57967 34966 ft 420 kts 167°
2026-05-07 15:33 46.62856 18.60531 34994 ft 420 kts 167°
2026-05-07 15:34 46.57391 18.63101 35007 ft 421 kts 167°
2026-05-07 15:34 46.51921 18.65668 35007 ft 423 kts 167°
2026-05-07 15:35 46.46529 18.68194 35004 ft 424 kts 167°
2026-05-07 15:35 46.41110 18.70727 35004 ft 425 kts 167°
2026-05-07 15:36 46.35583 18.73306 35007 ft 425 kts 167°
2026-05-07 15:36 46.30077 18.75869 35007 ft 425 kts 167°
2026-05-07 15:37 46.24546 18.78438 35011 ft 426 kts 167°
2026-05-07 15:37 46.19007 18.81005 35011 ft 426 kts 167°
2026-05-07 15:38 46.13473 18.83565 35013 ft 427 kts 167°
2026-05-07 15:38 46.07930 18.86124 35018 ft 428 kts 167°
2026-05-07 15:39 46.02362 18.88690 35014 ft 428 kts 167°
2026-05-07 15:39 45.96801 18.91247 34979 ft 429 kts 167°
2026-05-07 15:40 45.91358 18.94415 35002 ft 437 kts 153°
2026-05-07 15:40 45.86337 18.99033 35008 ft 439 kts 152°
2026-05-07 15:41 45.81310 19.03693 35013 ft 439 kts 152°
2026-05-07 15:41 45.76318 19.08263 35004 ft 440 kts 152°
2026-05-07 15:42 45.71294 19.12821 35016 ft 440 kts 152°
2026-05-07 15:42 45.66239 19.17392 35005 ft 440 kts 153°
2026-05-07 15:43 45.61165 19.21971 35005 ft 441 kts 153°
2026-05-07 15:43 45.56099 19.26533 35012 ft 441 kts 153°
2026-05-07 15:44 45.51009 19.31107 35002 ft 441 kts 152°
2026-05-07 15:44 45.45943 19.35651 35010 ft 441 kts 152°
2026-05-07 15:45 45.40853 19.40206 35009 ft 441 kts 153°
2026-05-07 15:45 45.35773 19.44742 35009 ft 441 kts 153°
2026-05-07 15:46 45.28140 19.51542 35012 ft 441 kts 153°
2026-05-07 15:47 45.22911 19.55617 35005 ft 433 kts 165°
2026-05-07 15:47 45.17341 19.58286 35016 ft 431 kts 166°
2026-05-07 15:48 45.11816 19.60872 35013 ft 432 kts 166°
2026-05-07 15:48 45.06244 19.63517 35016 ft 433 kts 166°
2026-05-07 15:49 45.00604 19.66219 35017 ft 434 kts 165°
2026-05-07 15:49 44.95032 19.68895 35017 ft 435 kts 165°
2026-05-07 15:50 44.89425 19.71583 35023 ft 436 kts 166°
2026-05-07 15:50 44.83791 19.74277 35018 ft 436 kts 166°
2026-05-07 15:51 44.78181 19.76954 35013 ft 436 kts 165°
2026-05-07 15:51 44.72539 19.79640 35019 ft 437 kts 165°
2026-05-07 15:52 44.66940 19.82300 35022 ft 438 kts 165°
2026-05-07 15:52 44.61267 19.84990 35016 ft 439 kts 166°
2026-05-07 15:53 44.55719 19.87615 35016 ft 439 kts 166°
2026-05-07 15:53 44.50040 19.90297 35018 ft 440 kts 166°
2026-05-07 15:54 44.44377 19.92966 35012 ft 440 kts 165°
2026-05-07 15:54 44.38686 19.95643 35008 ft 441 kts 166°
2026-05-07 15:55 44.33011 19.98306 35035 ft 441 kts 166°
2026-05-07 15:55 44.27292 20.00984 35018 ft 443 kts 166°
2026-05-07 15:56 44.21614 20.03638 35032 ft 443 kts 166°
2026-05-07 15:56 44.15893 20.06307 35006 ft 444 kts 166°
2026-05-07 15:57 44.10164 20.08976 35027 ft 444 kts 166°
2026-05-07 15:57 44.04384 20.11659 35021 ft 446 kts 166°
2026-05-07 15:58 43.98653 20.14315 35025 ft 447 kts 166°
2026-05-07 15:58 43.92857 20.16997 35013 ft 447 kts 166°
2026-05-07 15:59 43.87082 20.19664 35017 ft 448 kts 166°
2026-05-07 15:59 43.81299 20.22328 35008 ft 448 kts 166°
2026-05-07 16:00 43.75541 20.24976 35025 ft 449 kts 166°
2026-05-07 16:00 43.69775 20.27623 35025 ft 449 kts 166°
2026-05-07 16:01 43.63985 20.30273 35024 ft 450 kts 166°
2026-05-07 16:01 43.58198 20.32918 35035 ft 450 kts 166°
2026-05-07 16:02 43.52419 20.35554 35024 ft 451 kts 166°
2026-05-07 16:02 43.46806 20.38112 35035 ft 452 kts 166°
2026-05-07 16:03 43.40983 20.40756 35039 ft 453 kts 166°
2026-05-07 16:03 43.35140 20.43404 35038 ft 453 kts 166°
2026-05-07 16:04 43.29296 20.46048 35044 ft 453 kts 166°
2026-05-07 16:04 43.23433 20.48695 35049 ft 453 kts 166°
2026-05-07 16:05 43.17560 20.51342 35053 ft 453 kts 166°
2026-05-07 16:05 43.11780 20.53943 35069 ft 453 kts 166°
2026-05-07 16:06 43.05913 20.56577 35064 ft 454 kts 166°
2026-05-07 16:06 43.00054 20.59241 35068 ft 455 kts 164°
2026-05-07 16:07 42.94249 20.62261 35063 ft 457 kts 162°
2026-05-07 16:07 42.88519 20.65356 35074 ft 456 kts 162°
2026-05-07 16:08 42.82771 20.68426 35080 ft 456 kts 162°
2026-05-07 16:08 42.77986 20.70952 35093 ft 456 kts 163°
2026-05-07 16:09 42.72259 20.73958 35085 ft 456 kts 163°
2026-05-07 16:09 42.66469 20.76990 35084 ft 457 kts 163°
2026-05-07 16:10 42.60678 20.80017 35097 ft 457 kts 163°
2026-05-07 16:10 42.54926 20.83019 35106 ft 457 kts 163°
2026-05-07 16:11 42.49151 20.86027 35107 ft 457 kts 163°
2026-05-07 16:11 42.43343 20.89046 35097 ft 457 kts 163°
2026-05-07 16:12 42.37542 20.92056 35104 ft 457 kts 163°
2026-05-07 16:12 42.31747 20.95056 35106 ft 458 kts 163°
2026-05-07 16:13 42.25915 20.98070 35083 ft 459 kts 164°
2026-05-07 16:13 42.20090 21.01074 35085 ft 458 kts 164°
2026-05-07 16:14 42.14279 21.04064 35098 ft 458 kts 163°
2026-05-07 16:14 42.08429 21.06521 35099 ft 450 kts 174°
2026-05-07 16:15 42.02375 21.07970 35090 ft 450 kts 176°
2026-05-07 16:15 41.96334 21.09360 35091 ft 452 kts 175°
2026-05-07 16:16 41.90273 21.10813 35106 ft 454 kts 175°
2026-05-07 16:16 41.84212 21.12302 35071 ft 455 kts 175°
2026-05-07 16:17 41.78137 21.13802 35104 ft 455 kts 175°
2026-05-07 16:17 41.72095 21.15296 35111 ft 454 kts 175°
2026-05-07 16:18 41.65998 21.16793 35118 ft 456 kts 175°
2026-05-07 16:18 41.60014 21.18257 35101 ft 458 kts 175°
2026-05-07 16:19 41.53873 21.19760 35116 ft 460 kts 175°
2026-05-07 16:19 41.47715 21.21264 35114 ft 461 kts 175°
2026-05-07 16:20 41.41532 21.22774 35086 ft 461 kts 176°
2026-05-07 16:20 41.35369 21.24274 35109 ft 461 kts 176°
2026-05-07 16:21 41.29168 21.25778 35120 ft 463 kts 176°
2026-05-07 16:21 41.22945 21.27287 35112 ft 464 kts 176°
2026-05-07 16:22 41.16686 21.28800 35103 ft 466 kts 177°
2026-05-07 16:22 41.10520 21.30289 35113 ft 466 kts 177°
2026-05-07 16:23 41.04370 21.31767 34568 ft 474 kts 177°
2026-05-07 16:23 41.01224 21.32525 34019 ft 473 kts 176°
2026-05-07 16:23 40.98056 21.33291 33543 ft 468 kts 176°
2026-05-07 16:23 40.94949 21.34041 33096 ft 463 kts 176°
2026-05-07 16:24 40.91843 21.34787 32645 ft 459 kts 176°
2026-05-07 16:24 40.88787 21.35420 32205 ft 450 kts 181°
2026-05-07 16:24 40.85783 21.35496 31958 ft 434 kts 191°
2026-05-07 16:24 40.83070 21.35045 31786 ft 418 kts 195°
2026-05-07 16:25 40.80271 21.34459 31609 ft 415 kts 196°
2026-05-07 16:25 40.77477 21.33868 31433 ft 422 kts 195°
2026-05-07 16:25 40.74636 21.33276 31249 ft 428 kts 195°
2026-05-07 16:25 40.71753 21.32692 31032 ft 429 kts 195°
2026-05-07 16:26 40.68875 21.32126 30834 ft 426 kts 194°
2026-05-07 16:26 40.66029 21.31573 30647 ft 422 kts 194°
2026-05-07 16:26 40.63200 21.31024 30468 ft 420 kts 194°
2026-05-07 16:26 40.60397 21.30479 30268 ft 418 kts 194°
2026-05-07 16:27 40.57578 21.29930 30052 ft 416 kts 195°
2026-05-07 16:27 40.54793 21.29386 29845 ft 415 kts 195°
2026-05-07 16:27 40.52010 21.28844 29656 ft 414 kts 195°
2026-05-07 16:27 40.49234 21.28304 29465 ft 414 kts 195°
2026-05-07 16:28 40.46453 21.27742 29278 ft 411 kts 198°
2026-05-07 16:28 40.43792 21.26779 29082 ft 403 kts 208°
2026-05-07 16:28 40.41311 21.25322 28923 ft 398 kts 211°
2026-05-07 16:28 40.38873 21.23806 28719 ft 398 kts 212°
2026-05-07 16:29 40.36437 21.22285 28553 ft 398 kts 212°
2026-05-07 16:29 40.33980 21.20756 28382 ft 398 kts 212°
2026-05-07 16:29 40.31656 21.19319 28208 ft 398 kts 212°
2026-05-07 16:29 40.29202 21.17812 28021 ft 398 kts 212°
2026-05-07 16:30 40.26751 21.16313 27851 ft 397 kts 211°
2026-05-07 16:30 40.24289 21.14806 27672 ft 396 kts 211°
2026-05-07 16:30 40.21869 21.13330 27487 ft 396 kts 211°
2026-05-07 16:30 40.19455 21.11868 27317 ft 395 kts 211°
2026-05-07 16:31 40.17052 21.10416 27137 ft 394 kts 211°
2026-05-07 16:31 40.14618 21.08944 26963 ft 393 kts 211°
2026-05-07 16:31 40.12230 21.07500 26790 ft 392 kts 211°
2026-05-07 16:31 40.09912 21.06098 26617 ft 390 kts 211°
2026-05-07 16:32 40.07552 21.04671 26445 ft 388 kts 211°
2026-05-07 16:32 40.05154 21.03222 26274 ft 387 kts 211°
2026-05-07 16:32 40.02801 21.01802 26092 ft 386 kts 210°
2026-05-07 16:32 40.00417 21.00362 25908 ft 385 kts 210°
2026-05-07 16:33 39.98043 20.98930 25734 ft 384 kts 210°
2026-05-07 16:33 39.95669 20.97500 25574 ft 383 kts 210°
2026-05-07 16:33 39.93318 20.96085 25396 ft 382 kts 210°
2026-05-07 16:33 39.90963 20.94668 25227 ft 381 kts 210°
2026-05-07 16:34 39.88616 20.93257 25054 ft 381 kts 210°
2026-05-07 16:34 39.86248 20.91834 24881 ft 381 kts 210°
2026-05-07 16:34 39.83901 20.90426 24702 ft 380 kts 210°
2026-05-07 16:34 39.81547 20.89015 24534 ft 380 kts 210°
2026-05-07 16:35 39.79200 20.87608 24357 ft 379 kts 210°
2026-05-07 16:35 39.76845 20.86196 24178 ft 379 kts 210°
2026-05-07 16:35 39.74534 20.84812 24026 ft 379 kts 210°
2026-05-07 16:35 39.72197 20.83415 23859 ft 378 kts 210°
2026-05-07 16:36 39.69860 20.82019 23673 ft 378 kts 209°
2026-05-07 16:36 39.67490 20.80665 23479 ft 378 kts 208°
2026-05-07 16:36 39.65125 20.79375 23285 ft 376 kts 208°
2026-05-07 16:36 39.62770 20.78111 23101 ft 373 kts 207°
2026-05-07 16:37 39.60434 20.76861 22928 ft 371 kts 207°
2026-05-07 16:37 39.58107 20.75611 22769 ft 368 kts 208°
2026-05-07 16:37 39.55797 20.74365 22593 ft 366 kts 208°
2026-05-07 16:37 39.53502 20.73124 22442 ft 364 kts 208°
2026-05-07 16:38 39.51219 20.71887 22258 ft 363 kts 208°
2026-05-07 16:38 39.48948 20.70656 22093 ft 361 kts 208°
2026-05-07 16:38 39.46677 20.69425 21936 ft 359 kts 207°
2026-05-07 16:38 39.44424 20.68204 21753 ft 358 kts 207°
2026-05-07 16:39 39.42192 20.66995 21570 ft 356 kts 207°
2026-05-07 16:39 39.39966 20.65790 21439 ft 352 kts 207°
2026-05-07 16:39 39.37739 20.64588 21295 ft 353 kts 207°
2026-05-07 16:39 39.35519 20.63388 21124 ft 354 kts 207°
2026-05-07 16:40 39.33289 20.62184 20950 ft 353 kts 207°
2026-05-07 16:40 39.31085 20.60997 20813 ft 353 kts 207°
2026-05-07 16:40 39.28853 20.59792 20653 ft 354 kts 207°
2026-05-07 16:40 39.26629 20.58592 20468 ft 354 kts 207°
2026-05-07 16:41 39.24412 20.57398 20309 ft 353 kts 207°
2026-05-07 16:41 39.22192 20.56204 20153 ft 352 kts 207°
2026-05-07 16:41 39.19971 20.55011 20005 ft 351 kts 207°
2026-05-07 16:41 39.17769 20.53827 19837 ft 350 kts 207°
2026-05-07 16:42 39.15598 20.52662 19681 ft 349 kts 207°
2026-05-07 16:42 39.13406 20.51485 19522 ft 347 kts 207°
2026-05-07 16:42 39.11235 20.50320 19367 ft 345 kts 207°
2026-05-07 16:42 39.09067 20.49158 19211 ft 344 kts 207°
2026-05-07 16:43 39.06915 20.48006 19054 ft 343 kts 206°
2026-05-07 16:43 39.04772 20.46859 18887 ft 342 kts 206°
2026-05-07 16:43 39.02628 20.45713 18750 ft 341 kts 206°
2026-05-07 16:43 39.00497 20.44574 18597 ft 340 kts 206°
2026-05-07 16:44 38.98361 20.43432 18443 ft 339 kts 206°
2026-05-07 16:44 38.96236 20.42297 18279 ft 339 kts 206°
2026-05-07 16:44 38.94100 20.41157 18104 ft 338 kts 206°
2026-05-07 16:44 38.91983 20.40028 17942 ft 337 kts 206°
2026-05-07 16:45 38.89874 20.38903 17781 ft 335 kts 206°
2026-05-07 16:45 38.87771 20.37783 17633 ft 334 kts 206°
2026-05-07 16:45 38.85670 20.36664 17462 ft 333 kts 206°
2026-05-07 16:45 38.83585 20.35554 17317 ft 332 kts 206°
2026-05-07 16:46 38.81505 20.34448 17176 ft 330 kts 206°
2026-05-07 16:46 38.79430 20.33345 17014 ft 329 kts 205°
2026-05-07 16:46 38.77362 20.32246 16872 ft 328 kts 205°
2026-05-07 16:46 38.75300 20.31151 16724 ft 327 kts 205°
2026-05-07 16:47 38.73245 20.30061 16576 ft 326 kts 205°
2026-05-07 16:47 38.71196 20.28975 16429 ft 325 kts 205°
2026-05-07 16:47 38.69177 20.27904 16283 ft 325 kts 205°
2026-05-07 16:47 38.67108 20.26808 16124 ft 324 kts 205°
2026-05-07 16:48 38.65105 20.25748 15985 ft 323 kts 205°
2026-05-07 16:48 38.63080 20.24677 15846 ft 322 kts 205°
2026-05-07 16:48 38.61057 20.23607 15691 ft 321 kts 205°
2026-05-07 16:48 38.59001 20.22521 15555 ft 321 kts 205°
2026-05-07 16:49 38.57011 20.21471 15412 ft 320 kts 205°
2026-05-07 16:49 38.55005 20.20412 15264 ft 319 kts 205°
2026-05-07 16:49 38.52999 20.19354 15130 ft 318 kts 205°
2026-05-07 16:49 38.50996 20.18298 14973 ft 317 kts 205°
2026-05-07 16:50 38.49006 20.17249 14833 ft 316 kts 205°
2026-05-07 16:50 38.47025 20.16206 14672 ft 314 kts 205°
2026-05-07 16:50 38.45065 20.15175 14537 ft 310 kts 205°
2026-05-07 16:50 38.43115 20.14151 14398 ft 307 kts 205°
2026-05-07 16:51 38.41195 20.13132 14277 ft 305 kts 207°
2026-05-07 16:51 38.39490 20.11686 14138 ft 300 kts 223°
2026-05-07 16:51 38.37951 20.09990 14004 ft 301 kts 221°
2026-05-07 16:51 38.36333 20.08362 13862 ft 302 kts 218°
2026-05-07 16:52 38.34657 20.06833 13684 ft 303 kts 216°
2026-05-07 16:52 38.32923 20.05411 13554 ft 304 kts 213°
2026-05-07 16:52 38.31128 20.04097 13410 ft 305 kts 210°
2026-05-07 16:52 38.29877 20.03269 13306 ft 305 kts 208°
2026-05-07 16:53 38.28008 20.02156 13164 ft 305 kts 206°
2026-05-07 16:53 38.26091 20.01162 13017 ft 302 kts 203°
2026-05-07 16:53 38.24176 20.00307 12885 ft 299 kts 200°
2026-05-07 16:53 38.22213 19.99567 12753 ft 298 kts 198°
2026-05-07 16:54 38.20271 19.98964 12623 ft 298 kts 195°
2026-05-07 16:54 38.18307 19.98480 12489 ft 299 kts 192°
2026-05-07 16:54 38.16281 19.98110 12366 ft 300 kts 190°
2026-05-07 16:54 38.14264 19.97869 12227 ft 302 kts 187°
2026-05-07 16:55 38.12229 19.97754 12091 ft 304 kts 184°
2026-05-07 16:55 38.10165 19.97767 11951 ft 305 kts 181°
2026-05-07 16:55 38.08086 19.97912 11799 ft 306 kts 179°
2026-05-07 16:55 38.06012 19.98190 11668 ft 306 kts 176°
2026-05-07 16:56 38.03954 19.98586 11525 ft 306 kts 174°
2026-05-07 16:56 38.01909 19.99083 11390 ft 305 kts 172°
2026-05-07 16:56 37.97844 20.00658 11102 ft 326 kts 153°
2026-05-07 16:57 37.96300 20.02644 10943 ft 328 kts 123°
2026-05-07 16:57 37.95716 20.05335 10803 ft 334 kts 94°
2026-05-07 16:57 37.96218 20.08094 10719 ft 341 kts 66°
2026-05-07 16:57 37.97370 20.10635 10611 ft 341 kts 63°
2026-05-07 16:58 37.98395 20.13177 10433 ft 326 kts 68°
2026-05-07 16:58 37.99205 20.15696 10245 ft 308 kts 82°
2026-05-07 16:58 37.99125 20.18156 10101 ft 280 kts 115°
2026-05-07 16:58 37.98408 20.20304 10032 ft 272 kts 120°
2026-05-07 16:59 37.97651 20.22451 9924 ft 277 kts 120°
2026-05-07 16:59 37.96876 20.24648 9780 ft 281 kts 120°
2026-05-07 16:59 37.96100 20.26862 9644 ft 281 kts 119°
2026-05-07 16:59 37.95328 20.29082 9495 ft 279 kts 119°
2026-05-07 17:00 37.94581 20.31235 9367 ft 278 kts 119°
2026-05-07 17:00 37.93855 20.33333 9248 ft 277 kts 119°
2026-05-07 17:00 37.93119 20.35463 9123 ft 276 kts 119°
2026-05-07 17:00 37.92382 20.37597 9012 ft 275 kts 119°
2026-05-07 17:01 37.91654 20.39702 8906 ft 275 kts 119°
2026-05-07 17:01 37.90907 20.41866 8764 ft 274 kts 119°
2026-05-07 17:01 37.90161 20.44023 8647 ft 274 kts 119°
2026-05-07 17:01 37.89409 20.46196 8501 ft 274 kts 119°
2026-05-07 17:02 37.88658 20.48366 8290 ft 276 kts 118°
2026-05-07 17:02 37.87908 20.50530 8164 ft 274 kts 118°
2026-05-07 17:02 37.87166 20.52670 8033 ft 271 kts 118°
2026-05-07 17:02 37.86419 20.54820 7818 ft 273 kts 118°
2026-05-07 17:03 37.85755 20.57022 7539 ft 278 kts 104°
2026-05-07 17:03 37.85960 20.59376 7257 ft 286 kts 69°
2026-05-07 17:03 37.87166 20.61230 7006 ft 288 kts 33°
2026-05-07 17:03 37.88822 20.62329 6949 ft 268 kts 31°
2026-05-07 17:04 37.90273 20.63526 6812 ft 250 kts 40°
2026-05-07 17:04 37.91503 20.64871 6678 ft 232 kts 47°
2026-05-07 17:04 37.92584 20.66282 6285 ft 230 kts 52°
2026-05-07 17:04 37.93584 20.67746 6021 ft 221 kts 55°
2026-05-07 17:05 37.94498 20.69204 5785 ft 215 kts 57°
2026-05-07 17:05 37.95342 20.70683 5545 ft 209 kts 60°
2026-05-07 17:05 37.96085 20.72147 5304 ft 204 kts 64°
2026-05-07 17:05 37.96748 20.73635 5069 ft 199 kts 68°
2026-05-07 17:06 37.97340 20.75145 4836 ft 194 kts 70°
2026-05-07 17:06 37.97828 20.76592 4603 ft 186 kts 82°
2026-05-07 17:06 37.97789 20.78082 4433 ft 171 kts 113°
2026-05-07 17:06 37.97282 20.79349 4220 ft 168 kts 132°
2026-05-07 17:07 37.96424 20.80338 3910 ft 168 kts 151°
2026-05-07 17:07 37.95407 20.80836 3855 ft 156 kts 164°
2026-05-07 17:07 37.94375 20.81227 3712 ft 162 kts 164°
2026-05-07 17:07 37.93327 20.81626 3548 ft 161 kts 164°
2026-05-07 17:08 37.92284 20.82019 3380 ft 159 kts 164°
2026-05-07 17:08 37.91260 20.82402 3199 ft 157 kts 163°
2026-05-07 17:08 37.90243 20.82781 3040 ft 157 kts 163°
2026-05-07 17:08 37.89208 20.83166 2888 ft 161 kts 163°
2026-05-07 17:09 37.88170 20.83552 2726 ft 161 kts 163°
2026-05-07 17:09 37.87138 20.83930 2586 ft 158 kts 164°
2026-05-07 17:09 37.86106 20.84277 2496 ft 157 kts 164°
2026-05-07 17:09 37.85109 20.84635 2450 ft 144 kts 163°
2026-05-07 17:10 37.84175 20.84976 2425 ft 143 kts 163°
2026-05-07 17:10 37.83271 20.85312 2340 ft 138 kts 163°
2026-05-07 17:10 37.82345 20.85616 1898 ft 143 kts 165°
2026-05-07 17:10 37.81419 20.85968 1452 ft 142 kts 161°
2026-05-07 17:11 37.80525 20.86343 1128 ft 137 kts 162°
2026-05-07 17:11 37.79655 20.86698 853 ft 136 kts 163°
2026-05-07 17:11 37.78768 20.87023 672 ft 138 kts 162°
2026-05-07 17:11 37.77852 20.87390 457 ft 146 kts 163°
2026-05-07 17:12 37.76911 20.87748 257 ft 143 kts 163°
2026-05-07 17:12 37.76015 20.88083 54 ft 136 kts 163°
2026-05-07 17:12 37.75189 20.88391 14 ft 111 kts 163°
2026-05-07 17:12 37.74630 20.88600 16 ft 49 kts 163°
2026-05-07 17:13 37.74479 20.88655 16 ft 19 kts 164°
2026-05-07 17:13 37.74360 20.88695 15 ft 16 kts 166°
2026-05-07 17:13 37.74350 20.88713 15 ft 1 kts 64°
2026-05-07 17:13 37.74356 20.88713 15 ft 1 kts
2026-05-07 17:14 37.74375 20.88700 16 ft 6 kts 329°
2026-05-07 17:14 37.74418 20.88676 16 ft 7 kts 344°
2026-05-07 17:14 37.74466 20.88660 16 ft 7 kts 345°
2026-05-07 17:14 37.74512 20.88643 18 ft 7 kts 342°
2026-05-07 17:15 37.74558 20.88625 16 ft 7 kts 343°
2026-05-07 17:15 37.74608 20.88605 16 ft 8 kts 343°
2026-05-07 17:15 37.74666 20.88583 16 ft 10 kts 343°
2026-05-07 17:15 37.74731 20.88559 16 ft 10 kts 346°
2026-05-07 17:16 37.74801 20.88534 15 ft 11 kts 343°
2026-05-07 17:16 37.74882 20.88503 14 ft 14 kts 343°
2026-05-07 17:16 37.74976 20.88468 13 ft 15 kts 343°
2026-05-07 17:16 37.75064 20.88488 14 ft 11 kts 28°
2026-05-07 17:17 37.75094 20.88510 16 ft 0 kts 31°
2026-05-07 17:17 37.75096 20.88512 16 ft 1 kts 31°
2026-05-07 17:18 37.75113 20.88523 15 ft 5 kts 22°
2026-05-07 17:18 37.75157 20.88522 17 ft 9 kts 342°
2026-05-07 17:18 37.75222 20.88495 15 ft 11 kts 342°
2026-05-07 17:18 37.75301 20.88479 14 ft 13 kts 27°
2026-05-07 17:19 37.75373 20.88511 17 ft 7 kts
2026-05-07 17:19 37.75398 20.88540 15 ft 0 kts 75°